Campo, CA

10:21 PM PDT on September 17, 2019 (GMT -0700)
Campo

Weather History for KCZZ - May, 2019

Change the Weather History Date:

Wednesday, May 22, 2019

  Actual Average Record
Temperature  
Mean Temperature 50 °F 62 °F  
Max Temperature 53 °F 81 °F 95 °F (1988)
Min Temperature 46 °F 42 °F 29 °F (1975)
Degree Days  
Heating Degree Days 15 4  
Month to date heating degree days 202 123  
Since 1 July heating degree days 2920 2891  
Cooling Degree Days 0 1  
Month to date cooling degree days 0 17  
Year to date cooling degree days 2 20  
Moisture  
Dew Point 44 °F    
Average Humidity 82    
Maximum Humidity 93    
Minimum Humidity 71    
Precipitation  
Precipitation 0.22 in 0.01 in 0.22 in (2019)
Month to date precipitation 1.40 0.16  
Year to date precipitation 12.59 10.02  
Sea Level Pressure  
Sea Level Pressure 29.70 in    
Wind  
Wind Speed 19 mph (SW)    
Max Wind Speed 26 mph    
Max Gust Speed 34 mph    
T = Trace of Precipitation, MM = Missing Value Source: NWS Daily Summary

Daily Weather History Graph

Daily Weather History Graph

Search for Another Location

Airport or City:

Astronomy

May. 22, 2019 Rise Set
Actual Time 5:43 AM PDT 7:42 PM PDT
Civil Twilight 5:15 AM PDT 8:09 PM PDT
Nautical Twilight 4:42 AM PDT 8:43 PM PDT
Astronomical Twilight 4:06 AM PDT 9:19 PM PDT
Moon 11:28 PM PDT (5/22) 8:57 AM PDT (5/22)
Length of Visible Light 14h 54m
Length of Day
13h 59m
Waning Gibbous, 84% of the Moon is Illuminated
May 22
Waning Gibbous
May 26
Last Quarter
Jun 3
New
Jun 9
First Quarter
Jun 17
Full

Hourly Weather History & Observations

Time (PDT) Temp. Windchill Dew Point Humidity Pressure Visibility Wind Dir Wind Speed Gust Speed Precip Events Conditions
12:52 AM 46.9 °F - 45.0 °F 93% 29.70 in - WSW 20.7 mph 31.1 mph 0.01 in   Unknown
1:52 AM 46.9 °F - 44.1 °F 90% 29.68 in - SW 23.0 mph 32.2 mph 0.01 in   Unknown
2:52 AM 46.0 °F 38.5 °F 44.1 °F 93% 29.67 in - SW 19.6 mph 25.3 mph 0.01 in   Unknown
3:52 AM 46.0 °F 38.3 °F 44.1 °F 93% 29.66 in - SW 20.7 mph 31.1 mph 0.02 in   Unknown
4:52 AM 46.0 °F 38.8 °F 44.1 °F 93% 29.65 in - SW 18.4 mph 26.5 mph 0.04 in   Unknown
5:52 AM 46.0 °F 38.8 °F 44.1 °F 93% 29.66 in - SW 18.4 mph 29.9 mph 0.01 in   Unknown
6:52 AM 46.0 °F 38.3 °F 44.1 °F 93% 29.67 in - SW 20.7 mph 25.3 mph 0.01 in   Unknown
7:52 AM 46.9 °F - 45.0 °F 93% 29.68 in - SW 20.7 mph 27.6 mph 0.01 in   Unknown
8:52 AM 48.0 °F - 46.0 °F 93% 29.69 in - SW 15.0 mph 24.2 mph 0.11 in   Unknown
9:52 AM 48.0 °F - 44.1 °F 86% 29.70 in - SW 16.1 mph 23.0 mph N/A   Unknown
10:52 AM 48.9 °F - 44.1 °F 83% 29.71 in - SW 15.0 mph 20.7 mph N/A   Unknown
11:52 AM 52.0 °F - 43.0 °F 71% 29.70 in - WSW 19.6 mph 26.5 mph N/A   Unknown
12:52 PM 52.0 °F - 43.0 °F 71% 29.70 in - West 18.4 mph - N/A   Unknown
1:52 PM 51.1 °F - 44.1 °F 77% 29.70 in - WSW 16.1 mph 23.0 mph N/A   Unknown
2:52 PM 51.1 °F - 43.0 °F 74% 29.70 in - WSW 16.1 mph 23.0 mph N/A   Unknown
3:52 PM 51.1 °F - 44.1 °F 77% 29.69 in - WSW 21.9 mph 27.6 mph 0.01 in   Unknown
4:52 PM 52.0 °F - 42.1 °F 69% 29.69 in - WSW 19.6 mph 25.3 mph N/A   Unknown
5:52 PM 48.9 °F - 43.0 °F 80% 29.71 in - SW 15.0 mph 23.0 mph N/A   Unknown
6:52 PM 48.9 °F - 42.1 °F 77% 29.71 in - SW 12.7 mph - N/A   Unknown
7:52 PM 46.9 °F - 43.0 °F 86% 29.73 in - SW 10.4 mph - N/A   Unknown
8:52 PM 45.0 °F 39.3 °F 42.1 °F 90% 29.75 in - SSW 11.5 mph - 0.01 in   Unknown
9:52 PM 46.0 °F 43.1 °F 42.1 °F 86% 29.77 in - WSW 5.8 mph - N/A   Unknown
10:52 PM 45.0 °F 40.1 °F 42.1 °F 90% 29.78 in - SW 9.2 mph - N/A   Unknown
11:52 PM 46.0 °F 41.4 °F 44.1 °F 93% 29.80 in - SW 9.2 mph - N/A   Unknown